Weather in Metz

France     49°07′06″N   6°11′05″E
temp.,
°C
wind,
m/s
gust,
m/s
humid.,
%
clouds,
%
prec.,
mm/h
press.,
hPa
HPBL,
m
11 may, tue
tue1123:00+10sw2498100 1.2 1010166
02:00+9sw1298100 2.1 101157
05:00+9sw1198100 0.1 101038
08:00+10sw0095100 0.3 1010116
11:00+11wsw2294100 0.2 1009240
14:00+12w3386100 0.4 1009503
17:00+11sw3491100 0.3 1009312
20:00+11wsw51195100 0.6 1010444
12 may, wed
wed1223:00+10w41196100 1.5 1013498
02:00+8wsw41194100 1.6 1014288
05:00+5wsw39977 0.0 1014198
08:00+7wsw379645 0.0 1015272
11:00+11wsw347989 0.2 1014951
14:00+14wsw336456 0.6 10131414
17:00+13wsw336829 0.7 10121052
20:00+11w118321 0.8 101116
13 may, thu
thu1323:00+7ese11865 0.0 101210
02:00+6sse11885 0.0 101110
05:00+5ese11916 0.0 101010
08:00+8ssw259077 0.0 1010194
11:00+9wsw468798 0.0 1010620
14:00+8wsw5783100 0.1 1011582
17:00+13wsw356656 0.0 10081257
20:00+11wsw378812 0.6 1009250
14 may, fri
fri1423:00+7sw23955 0.0 101050
02:00+5ssw22965 0.0 101020
05:00+4ssw22965 0.0 100932
08:00+7sw36946 0.0 1010244
11:00+11wsw5787100 0.4 1011849
14:00+13w4572100 0.7 10101173
17:00+13w567935 0.6 1010859
20:00+11wsw36834 0.8 1011151
15 may, sat
sat1523:00+7sw22935 0.0 101323
02:00+5ssw34955 0.0 101369
05:00+4s36975 0.0 1012105
08:00+7ssw499599 0.0 1013477
11:00+8ssw4891100 0.2 1012735
14:00+12ssw6885100 0.7 1010979
17:00+11sw4989100 2.1 10091314
20:00+8s41296100 3.8 1007646